FW8124 Weather Reports


time (UTC)temp
C
wind
direction
speed
KPH
gust
KPH
rain 1hr
cm
rain 24hr
cm
rain mn
cm
humidity
%
barometer
mb
20260510210057 19 337 4.8 12.9 0.00 0.00 0.00 66 1012.2
20260510204559 19 335 4.8 8.0 0.00 0.00 0.00 66 1012.2
20260510203055 20 0 0.0 4.8 0.00 0.00 0.00 65 1012.1
20260510201558 20 0 4.8 14.5 0.00 0.00 0.00 64 1011.6
20260510200052 20 300 4.8 17.7 0.00 0.00 0.00 63 1011.3
20260510194550 20 336 6.4 19.3 0.00 0.00 0.00 62 1011.1
20260510193055 20 314 11.3 19.3 0.00 0.00 0.00 61 1011.0
20260510191550 20 336 12.9 22.5 0.00 0.00 0.00 62 1010.8
20260510190048 21 329 17.7 25.7 0.00 0.00 0.00 61 1010.8
20260510184554 21 324 14.5 25.7 0.00 0.00 0.00 58 1011.0
20260510183052 21 312 12.9 27.4 0.00 0.00 0.00 56 1010.8
20260510181552 22 346 14.5 27.4 0.00 0.00 0.00 55 1010.8
20260510180056 22 345 14.5 32.2 0.00 0.00 0.00 54 1010.8
20260510174553 22 336 16.1 33.8 0.00 0.00 0.00 53 1010.8
20260510173054 22 333 14.5 29.0 0.00 0.00 0.00 53 1010.8
20260510171559 22 338 9.7 24.1 0.00 0.00 0.00 53 1010.7
20260510170121 23 234 9.7 25.7 0.00 0.00 0.00 51 1010.7
20260510164604 23 327 14.5 29.0 0.00 0.00 0.00 50 1010.8
20260510163053 23 327 12.9 30.6 0.00 0.00 0.00 49 1010.8
20260510161555 23 323 16.1 32.2 0.00 0.00 0.00 49 1010.9
20260510160051 23 325 17.7 37.0 0.00 0.00 0.00 49 1010.8
20260510154553 23 317 16.1 25.7 0.00 0.00 0.00 50 1011.0
20260510153058 22 342 12.9 24.1 0.00 0.00 0.00 59 1011.1
20260510151559 21 292 19.3 30.6 0.00 0.00 0.00 71 1011.4
20260510150058 21 313 17.7 32.2 0.00 0.00 0.00 71 1011.6
20260510144558 23 342 19.3 32.2 0.00 0.00 0.00 58 1011.5
20260510143055 22 327 16.1 29.0 0.00 0.00 0.00 63 1011.8
20260510141557 22 318 20.9 33.8 0.00 0.00 0.00 63 1011.8
20260510140050 23 319 22.5 33.8 0.00 0.00 0.00 55 1012.0
20260510134556 23 336 16.1 30.6 0.00 0.00 0.00 60 1012.1
20260510133055 23 347 16.1 33.8 0.00 0.00 0.00 54 1012.2
20260510131556 24 311 16.1 30.6 0.00 0.00 0.00 52 1012.4
20260510130054 24 331 16.1 30.6 0.00 0.00 0.00 52 1012.5
20260510124605 24 311 19.3 33.8 0.00 0.00 0.00 53 1012.5
20260510123053 21 304 4.8 20.9 0.00 0.00 0.00 74 1012.8
20260510121551 20 309 14.5 27.4 0.00 0.00 0.00 77 1013.2
20260510120054 20 327 11.3 19.3 0.00 0.00 0.00 77 1013.5
20260510114552 20 313 12.9 20.9 0.00 0.00 0.00 78 1013.5
20260510113053 20 315 11.3 17.7 0.00 0.00 0.00 79 1013.9
20260510111549 20 306 8.0 14.5 0.00 0.00 0.00 80 1014.2
20260510110052 19 241 8.0 17.7 0.00 0.00 0.00 79 1014.3
20260510104555 19 306 9.7 16.1 0.00 0.05 0.00 77 1014.4
20260510103054 20 275 4.8 17.7 0.00 0.05 0.00 76 1014.3
20260510101551 20 279 6.4 16.1 0.00 0.05 0.00 75 1014.4
20260510100101 19 252 6.4 16.1 0.00 0.05 0.00 75 1014.2
20260510094553 19 248 6.4 14.5 0.00 0.41 0.00 75 1014.2
20260510093054 19 228 4.8 12.9 0.00 0.41 0.00 75 1014.2
20260510091549 18 264 8.0 14.5 0.00 0.41 0.00 77 1014.3
20260510090054 18 242 8.0 14.5 0.00 0.41 0.00 77 1014.1
20260510084553 19 233 4.8 14.5 0.00 0.58 0.00 76 1014.3
20260510083103 19 0 1.6 12.9 0.00 0.58 0.00 74 1014.4
20260510081553 18 260 3.2 11.3 0.00 0.58 0.00 77 1014.2
20260510080053 18 0 1.6 4.8 0.00 0.58 0.00 76 1014.6
20260510074556 18 0 0.0 4.8 0.00 0.64 0.00 77 1014.6
20260510073105 18 0 0.0 8.0 0.00 0.64 0.00 78 1014.6
20260510071552 17 0 0.0 4.8 0.00 0.64 0.00 80 1014.5
20260510070054 17 132 0.0 3.2 0.00 0.64 0.00 81 1014.3
20260510064554 16 132 1.6 11.3 0.00 1.19 0.00 83 1014.3
20260510063054 16 109 3.2 9.7 0.00 1.19 0.00 84 1014.2
20260510061552 15 134 3.2 6.4 0.00 1.19 0.00 85 1014.1
20260510060055 15 96 0.0 4.8 0.00 1.19 0.00 85 1014.1
20260510054554 15 0 0.0 6.4 0.00 1.37 0.00 85 1014.0
20260510053053 15 96 3.2 4.8 0.00 1.37 0.00 85 1013.9
20260510051556 15 0 0.0 6.4 0.00 1.37 0.00 85 1013.8
20260510050057 15 0 0.0 0.0 0.00 1.37 0.00 84 1013.7
20260510044557 15 0 0.0 0.0 0.00 1.37 0.00 84 1013.7
20260510043054 15 0 0.0 0.0 0.00 1.37 0.00 84 1013.7
20260510041553 15 0 0.0 0.0 0.00 1.37 0.00 84 1013.6
20260510040058 15 0 0.0 1.6 0.00 1.37 0.00 84 1013.6
20260510034551 15 0 0.0 3.2 0.00 1.37 0.00 84 1013.6
20260510033112 15 95 1.6 4.8 0.00 1.37 0.00 84 1013.6
20260510031550 15 95 1.6 4.8 0.00 1.37 0.00 84 1013.6
20260510030050 15 95 1.6 4.8 0.00 1.37 0.00 84 1013.6
20260510024549 15 96 0.0 4.8 0.00 1.37 0.00 84 1013.6
20260510023056 15 96 1.6 4.8 0.00 1.37 0.00 84 1013.6
20260510021552 15 0 0.0 1.6 0.00 1.37 0.00 84 1013.5
20260510020057 15 0 0.0 1.6 0.00 1.37 0.00 84 1013.3
20260510014553 15 0 0.0 3.2 0.00 1.37 0.00 83 1013.2
20260510013049 15 96 0.0 1.6 0.00 1.37 0.00 83 1013.2
20260510011553 15 0 0.0 3.2 0.00 1.37 0.00 83 1013.2
20260510010049 15 96 0.0 4.8 0.00 1.37 0.00 83 1013.5
20260510004551 16 0 0.0 6.4 0.00 1.37 0.00 83 1013.6
20260510003103 16 98 1.6 9.7 0.00 1.37 0.00 82 1013.6
20260510001552 16 88 3.2 6.4 0.00 1.37 0.00 82 1013.7
20260510000053 16 0 0.0 3.2 0.00 1.37 0.00 82 1013.9
20260509234559 16 351 1.6 3.2 0.00 1.37 0.00 81 1013.8
20260509233053 17 0 0.0 6.4 0.00 1.37 0.00 81 1013.9
20260509231559 17 0 0.0 0.0 0.00 1.37 0.00 80 1014.0
20260509230053 17 0 0.0 0.0 0.00 1.37 0.00 80 1014.0
20260509224558 17 0 0.0 4.8 0.00 1.37 0.00 80 1014.1
20260509223053 17 355 1.6 8.0 0.00 1.37 0.00 79 1014.1
20260509221550 17 331 3.2 8.0 0.00 1.37 0.00 78 1014.1
20260509220053 17 13 1.6 4.8 0.00 1.37 0.00 78 1014.3
20260509214552 17 0 0.0 3.2 0.00 1.37 1.37 77 1014.2
20260509213056 17 323 1.6 6.4 0.00 1.37 1.37 77 1014.1
20260509211550 17 331 3.2 9.7 0.00 1.37 1.37 76 1014.1